Fort Payne, AL

9:43 PM CDT on September 25, 2017 (GMT -0500)
Fort Payne

Weather History for K4A9 - January, 2014

Change the Weather History Date:

Thursday, January 2, 2014

  Actual Average (KRMG) Record (KRMG)
Temperature  
Mean Temperature 36 °F -  
Max Temperature 48 °F 51 °F 70 °F (2005)
Min Temperature 24 °F 30 °F 19 °F (2008)
Degree Days  
Heating Degree Days 29    
Moisture  
Dew Point 33 °F    
Average Humidity 80    
Maximum Humidity 93    
Minimum Humidity 55    
Precipitation  
Precipitation 0.04 in - - ()
Sea Level Pressure  
Sea Level Pressure 30.00 in    
Wind  
Wind Speed 5 mph (WNW)    
Max Wind Speed 20 mph    
Max Gust Speed 32 mph    
Visibility 7 miles    
Events Rain , Snow    
Averages and records for this station are not official NWS values.
T = Trace of Precipitation, MM = Missing Value Source: NWS Daily Summary

Daily Weather History Graph

Daily Weather History Graph

Search for Another Location

Airport or City:

Trip Planner

Search our weather history database for the weather conditions in past years. The results will help you decide how hot, cold, wet, or windy it might be!

Date:

Astronomy

Jan. 02, 2014 Rise Set
Actual Time 6:49 AM CST 4:44 PM CST
Civil Twilight 6:21 AM CST 5:12 PM CST
Nautical Twilight 5:50 AM CST 5:43 PM CST
Astronomical Twilight 5:20 AM CST 6:14 PM CST
Moon 7:35 AM CST (1/2) 6:35 PM CST (1/2)
Length of Visible Light 10h 50m
Length of Day
9h 54m
Waxing Crescent, 3% of the Moon is Illuminated
Jan 2
Waxing Crescent
Jan 7
First Quarter
Jan 15
Full
Jan 23
Last Quarter
Jan 30
New

Hourly Weather History & Observations

Time (CST) Temp. Windchill Dew Point Humidity Pressure Visibility Wind Dir Wind Speed Gust Speed Precip Events Conditions
12:15 AM 44.6 °F - 37.4 °F 76% 30.06 in 10.0 mi Calm Calm - N/A   Overcast
12:35 AM 44.6 °F - 37.4 °F 76% 30.05 in 10.0 mi Calm Calm - N/A   Overcast
12:55 AM 44.6 °F - 37.4 °F 76% 30.05 in 10.0 mi Calm Calm - N/A   Overcast
1:15 AM 44.6 °F 43.1 °F 37.4 °F 76% 30.04 in 10.0 mi SE 3.5 mph - N/A   Light Drizzle
1:35 AM 44.6 °F - 37.4 °F 76% 30.04 in 10.0 mi Calm Calm - N/A Rain Light Rain
1:55 AM 42.8 °F - 37.4 °F 81% 30.03 in 7.0 mi Calm Calm - N/A Rain Light Rain
2:15 AM 42.8 °F - 39.2 °F 87% 30.01 in 4.0 mi Calm Calm - N/A Rain Light Rain
2:35 AM 42.8 °F - 41.0 °F 93% 30.00 in 7.0 mi Calm Calm - N/A   Light Drizzle
2:55 AM 42.8 °F - 41.0 °F 93% 29.99 in 7.0 mi Calm Calm - N/A   Overcast
3:15 AM 44.6 °F - 41.0 °F 87% 29.98 in 10.0 mi Calm Calm - N/A   Light Drizzle
3:35 AM 42.8 °F 40.1 °F 41.0 °F 93% 29.98 in 7.0 mi SSW 4.6 mph - N/A Rain Light Rain
3:55 AM 44.6 °F - 41.0 °F 87% 29.96 in 5.0 mi Calm Calm - N/A Rain Rain
4:15 AM 44.6 °F 40.7 °F 41.0 °F 87% 29.95 in 5.0 mi SSW 6.9 mph - N/A Rain Rain
4:35 AM 44.6 °F 41.4 °F 41.0 °F 87% 29.94 in 4.0 mi SSW 5.8 mph - 0.01 in Rain Rain
4:55 AM 44.6 °F 40.7 °F 41.0 °F 87% 29.92 in 4.0 mi SSW 6.9 mph - 0.01 in Rain Rain
5:15 AM 44.6 °F 41.4 °F 42.8 °F 93% 29.92 in 7.0 mi SSW 5.8 mph - N/A   Overcast
5:35 AM 44.6 °F 42.2 °F 42.8 °F 93% 29.91 in 5.0 mi SSW 4.6 mph - N/A   Drizzle
5:55 AM 44.6 °F 43.1 °F 41.0 °F 87% 29.92 in 4.0 mi West 3.5 mph - N/A Rain Heavy Rain
6:15 AM 44.6 °F - 42.8 °F 93% 29.92 in 2.5 mi Calm Calm - 0.01 in Rain Rain
6:35 AM 44.6 °F - 42.8 °F 93% 29.92 in 3.0 mi Calm Calm - 0.01 in   Drizzle
6:55 AM 44.6 °F - 42.8 °F 93% 29.91 in 2.5 mi Calm Calm - 0.01 in   Light Drizzle
7:15 AM 44.6 °F - 42.8 °F 93% 29.90 in 1.8 mi Calm Calm - N/A Rain Rain
7:35 AM 44.6 °F - 42.8 °F 93% 29.89 in 2.0 mi Calm Calm - N/A   Drizzle
7:55 AM 44.6 °F - 42.8 °F 93% 29.88 in 5.0 mi Calm Calm - N/A Rain Light Rain
8:15 AM 44.6 °F - 42.8 °F 93% 29.88 in 4.0 mi Calm Calm - N/A   Drizzle
8:35 AM 44.6 °F - 42.8 °F 93% 29.88 in 1.8 mi Calm Calm - N/A Rain Rain
8:55 AM 44.6 °F - 42.8 °F 93% 29.87 in 2.0 mi Calm Calm - N/A   Drizzle
9:15 AM 44.6 °F 43.1 °F 42.8 °F 93% 29.87 in 2.5 mi SW 3.5 mph - 0.01 in Rain Rain
9:35 AM 44.6 °F 42.2 °F 42.8 °F 93% 29.87 in 4.0 mi WSW 4.6 mph - 0.01 in Rain Light Rain
9:55 AM 46.4 °F 45.2 °F 42.8 °F 87% 29.86 in 10.0 mi SW 3.5 mph - 0.01 in Rain Light Rain
10:15 AM 46.4 °F 42.9 °F 44.6 °F 93% 29.86 in 4.0 mi SW 6.9 mph - N/A   Overcast
10:35 AM 46.4 °F 41.9 °F 44.6 °F 93% 29.86 in 2.5 mi SW 9.2 mph - N/A   Drizzle
10:55 AM 46.4 °F 43.5 °F 44.6 °F 93% 29.85 in 1.8 mi SW 5.8 mph - N/A   Overcast
11:15 AM 46.4 °F 44.3 °F 44.6 °F 93% 29.83 in 1.8 mi SW 4.6 mph - N/A   Overcast
11:35 AM 48.2 °F - 46.4 °F 93% 29.83 in 4.0 mi West 5.8 mph - N/A   Overcast
11:55 AM 48.2 °F - 44.6 °F 87% 29.83 in 10.0 mi WNW 5.8 mph 17.3 mph N/A   Overcast
12:15 PM 46.4 °F 40.4 °F 42.8 °F 87% 29.83 in 7.0 mi NW 13.8 mph 24.2 mph N/A   Overcast
12:35 PM 44.6 °F 38.1 °F 41.0 °F 87% 29.86 in 10.0 mi WNW 13.8 mph 18.4 mph N/A   Overcast
12:55 PM 42.8 °F 35.1 °F 37.4 °F 81% 29.87 in 10.0 mi NW 16.1 mph 25.3 mph N/A   Overcast
1:15 PM 42.8 °F 36.6 °F 37.4 °F 81% 29.88 in 7.0 mi NW 11.5 mph 26.5 mph 0.01 in   Overcast
1:35 PM 42.8 °F 34.3 °F 37.4 °F 81% 29.89 in 10.0 mi NNW 19.6 mph 28.8 mph 0.01 in   Overcast
1:55 PM 41.0 °F 32.8 °F 35.6 °F 81% 29.90 in 10.0 mi NNW 16.1 mph 21.9 mph 0.01 in   Overcast
2:15 PM 41.0 °F 33.5 °F 35.6 °F 81% 29.92 in 10.0 mi WNW 13.8 mph 21.9 mph N/A   Overcast
2:35 PM 39.2 °F 32.5 °F 33.8 °F 81% 29.94 in 10.0 mi NW 10.4 mph 21.9 mph N/A   Overcast
2:55 PM 37.4 °F 28.2 °F 32.0 °F 81% 29.96 in 10.0 mi NW 16.1 mph 25.3 mph N/A   Overcast
3:15 PM 35.6 °F 26.6 °F 32.0 °F 87% 29.98 in 10.0 mi NW 13.8 mph 24.2 mph N/A   Overcast
3:35 PM 35.6 °F 26.2 °F 30.2 °F 81% 30.00 in 10.0 mi WNW 15.0 mph 27.6 mph N/A   Overcast
3:55 PM 33.8 °F 23.9 °F 28.4 °F 81% 30.01 in 10.0 mi NW 15.0 mph 21.9 mph N/A   Mostly Cloudy
4:15 PM 33.8 °F 25.3 °F 28.4 °F 81% 30.02 in 10.0 mi NW 11.5 mph 18.4 mph N/A   Mostly Cloudy
4:35 PM 32.0 °F 21.2 °F 26.6 °F 80% 30.03 in 10.0 mi NW 16.1 mph 24.2 mph N/A   Overcast
4:55 PM 32.0 °F 25.6 °F 24.8 °F 75% 30.04 in 10.0 mi NW 6.9 mph 18.4 mph N/A   Mostly Cloudy
5:15 PM 32.0 °F 21.6 °F 23.0 °F 69% 30.05 in 10.0 mi NNW 15.0 mph 24.2 mph N/A   Scattered Clouds
5:35 PM 32.0 °F 24.2 °F 23.0 °F 69% 30.07 in 10.0 mi NNW 9.2 mph 19.6 mph N/A   Scattered Clouds
5:55 PM 32.0 °F 22.1 °F 23.0 °F 69% 30.08 in 10.0 mi NNW 13.8 mph 28.8 mph N/A   Overcast
6:15 PM 30.2 °F 18.5 °F 21.2 °F 69% 30.10 in 10.0 mi NW 17.3 mph 23.0 mph N/A   Mostly Cloudy
6:35 PM 30.2 °F 20.2 °F 21.2 °F 69% 30.11 in 10.0 mi WNW 12.7 mph 25.3 mph N/A   Overcast
6:55 PM 28.4 °F 15.4 °F 17.6 °F 64% 30.13 in 10.0 mi NNW 19.6 mph 27.6 mph N/A   Mostly Cloudy
7:15 PM 28.4 °F 18.0 °F 17.6 °F 64% 30.14 in 10.0 mi NW 12.7 mph 25.3 mph N/A   Mostly Cloudy
7:35 PM 28.4 °F 19.1 °F 17.6 °F 64% 30.13 in 10.0 mi North 10.4 mph 21.9 mph N/A   Overcast
7:55 PM 28.4 °F 15.8 °F 17.6 °F 64% 30.14 in 10.0 mi NNW 18.4 mph 25.3 mph N/A   Overcast
8:15 PM 28.4 °F 15.8 °F 15.8 °F 59% 30.15 in 10.0 mi NNW 18.4 mph 32.2 mph N/A   Overcast
8:35 PM 26.6 °F 16.8 °F 17.6 °F 69% 30.18 in 10.0 mi NW 10.4 mph 24.2 mph N/A Snow Light Snow
8:55 PM 26.6 °F 15.2 °F 17.6 °F 69% 30.20 in 5.0 mi NNW 13.8 mph 20.7 mph N/A Snow Light Snow
9:15 PM 26.6 °F 14.3 °F 14.0 °F 59% 30.20 in 10.0 mi North 16.1 mph 20.7 mph N/A   Overcast
9:35 PM 26.6 °F 16.2 °F 12.2 °F 55% 30.23 in 10.0 mi NNW 11.5 mph 26.5 mph N/A   Overcast
9:55 PM 24.8 °F 12.9 °F 12.2 °F 59% 30.23 in 10.0 mi NW 13.8 mph 23.0 mph N/A   Overcast
10:15 PM 24.8 °F 14.6 °F 14.0 °F 64% 30.23 in 7.0 mi NNW 10.4 mph 19.6 mph N/A Snow Light Snow
10:35 PM 24.8 °F 14.0 °F 14.0 °F 64% 30.24 in 10.0 mi North 11.5 mph 19.6 mph N/A Snow Light Snow
10:55 PM 24.8 °F 14.0 °F 12.2 °F 59% 30.24 in 10.0 mi North 11.5 mph 21.9 mph N/A   Overcast
11:15 PM 24.8 °F 14.0 °F 14.0 °F 64% 30.25 in 10.0 mi North 11.5 mph 20.7 mph N/A Snow Light Snow
11:35 PM 24.8 °F 15.3 °F 14.0 °F 64% 30.25 in 10.0 mi NNW 9.2 mph 17.3 mph N/A   Overcast
11:55 PM 24.8 °F 13.4 °F 14.0 °F 64% 30.25 in 7.0 mi NNW 12.7 mph 21.9 mph N/A Snow Light Snow